Overview Statistics Trail Chart Weather Telemetry Raw packets
 

This is the latest recevied weather packets stored in our database for station/object HS3PIK-2. If no packets are shown the sender has not sent any weather packets the latest 10 day(s).

<< 7 8 9 10 11 12 13 >>
Time Temp. Humidity Pressure Rain* Wind** Luminosity Snow
1788620647 29.44° C 77% - - - 0 W/m² -
1788620317 30° C 76% - - - 0 W/m² -
1788619990 30° C 77% - - - 0 W/m² -
1788619660 30° C 77% - - - 0 W/m² -
1788619330 29.44° C 78% - - - 0 W/m² -
1788619002 28.89° C 79% - - - 0 W/m² -
1788618682 28.89° C 80% - - - 0 W/m² -
1788618355 28.89° C 80% - - - 0 W/m² -
1788618025 28.89° C 80% - - - 0 W/m² -
1788617700 28.89° C 80% - - - 0 W/m² -
1788617373 28.89° C 79% - - - 0 W/m² -
1788617043 29.44° C 78% - - - 0 W/m² -
1788616710 29.44° C 77% - - - 0 W/m² -
1788616380 30° C 74% - - - 0 W/m² -
1788616053 30° C 73% - - - 0 W/m² -
1788615723 31.11° C 74% - - - 0 W/m² -
1788615395 31.11° C 74% - - - 0 W/m² -
1788615070 31.11° C 75% - - - 0 W/m² -
1788614738 30.56° C 77% - - - 0 W/m² -
1788614410 30° C 76% - - - 0 W/m² -
1788614085 30.56° C 76% - - - 0 W/m² -
1788613758 30.56° C 76% - - - 0 W/m² -
1788613428 31.11° C 74% - - - 0 W/m² -
1788613101 31.67° C 73% - - - 0 W/m² -
1788612773 31.67° C 74% - - - 0 W/m² -

* Rain since midnight (hover to see other rain measurements)
** Current wind speed in m/s (hover to see current wind gust speed)